Find Starlink 5158

NORAD ID: 54055 Int'l Des: 2022-136 Owner: SPXS Country: US Constellation: starlink operational
LEOCIRCULAR

当前视图

正在加载3D地球...

About Starlink 5158

Starlink 5158 (NORAD 54055) is a starlink constellation satellite (v1.5) launched Oct 20, 2022 by SPXS of US. It operates in LEO, CIRCULAR orbit with a mass of 305.00 kg.

关于 Starlink 5158

正在加载描述...

即将过境

Passes for default location (London). Set your location on the main map for personalized predictions.

高度历史

Loading altitude history...

两行轨道根数

1 54055U 22136E 26166.53979091 .00000291 00000-0 36380-4 0 9993
2 54055 53.1599 264.9363 0001189 81.6917 278.4209 15.08835396201617
Epoch: Jun 15, 2026 • Age: 8 hours

当前状态

高度 545.0 km
速度 7.60 km/s
星下点 50.89°N, 107.12°E
发射日期 Oct 20, 2022
运行时间 3.6 years
类型 internet

技术详情

分类 Payload
质量 305.00 kg
干质量 290.00 kg
总质量 305.00 kg
长度 0.20 m
直径 2.80 m
跨度 9.00 m
形状 Box + pan
制造商 SPXS
平台类型 Starlink
阶段状态 In Orbit
所有者/国家 SPXS/US

Most Searched